Time,TemperatureF,DewpointF,PressureIn,WindDirection,WindDirectionDegrees,WindSpeedMPH,WindSpeedGustMPH,Humidity,HourlyPrecipIn,Conditions,Clouds,dailyrainin,SoftwareType,DateUTC
2013-03-08 00:02:00,23.0,20.0,30.48,WNW,286,0.0,-999.0,88,-99.99,,,-99.99,,2013-03-08 05:02:00,
2013-03-08 00:12:00,23.0,20.0,30.48,WNW,286,0.0,-999.0,88,-99.99,,,-99.99,,2013-03-08 05:12:00,
2013-03-08 00:22:00,22.0,19.0,30.48,WNW,286,0.0,-999.0,89,-99.99,,,-99.99,,2013-03-08 05:22:00,
2013-03-08 00:32:00,22.0,19.0,30.49,WNW,286,0.0,-999.0,89,-99.99,,,-99.99,,2013-03-08 05:32:00,
2013-03-08 00:42:00,22.0,19.0,30.49,WNW,286,0.0,-999.0,89,-99.99,,,-99.99,,2013-03-08 05:42:00,
2013-03-08 00:52:00,22.0,19.0,30.49,WNW,286,0.0,-999.0,89,-99.99,,,-99.99,,2013-03-08 05:52:00,
2013-03-08 01:01:00,21.0,19.0,30.50,WNW,286,0.0,-999.0,90,-99.99,,,-99.99,,2013-03-08 06:01:00,
2013-03-08 01:11:00,21.0,19.0,30.50,WNW,286,0.0,-999.0,90,-99.99,,,-99.99,,2013-03-08 06:11:00,
2013-03-08 01:22:00,21.0,19.0,30.50,WNW,286,0.0,-999.0,90,-99.99,,,-99.99,,2013-03-08 06:22:00,
2013-03-08 01:32:00,20.0,18.0,30.50,WNW,286,0.0,-999.0,91,-99.99,,,-99.99,,2013-03-08 06:32:00,
2013-03-08 01:42:00,20.0,18.0,30.50,WNW,286,0.0,-999.0,91,-99.99,,,-99.99,,2013-03-08 06:42:00,
2013-03-08 01:52:00,20.0,18.0,30.50,WNW,286,0.0,-999.0,91,-99.99,,,-99.99,,2013-03-08 06:52:00,
2013-03-08 02:01:00,20.0,18.0,30.51,WNW,286,0.0,-999.0,91,-99.99,,,-99.99,,2013-03-08 07:01:00,
2013-03-08 02:11:00,20.0,18.0,30.51,WNW,286,0.0,-999.0,91,-99.99,,,-99.99,,2013-03-08 07:11:00,
2013-03-08 02:22:00,20.0,18.0,30.50,WNW,286,0.0,-999.0,92,-99.99,,,-99.99,,2013-03-08 07:22:00,
2013-03-08 02:32:00,19.0,17.0,30.51,WNW,286,0.0,-999.0,92,-99.99,,,-99.99,,2013-03-08 07:32:00,
2013-03-08 02:42:00,19.0,17.0,30.51,WNW,286,0.0,-999.0,92,-99.99,,,-99.99,,2013-03-08 07:42:00,
2013-03-08 02:52:00,19.0,17.0,30.51,WNW,286,0.0,-999.0,92,-99.99,,,-99.99,,2013-03-08 07:52:00,
2013-03-08 03:01:00,19.0,17.0,30.51,WNW,286,0.0,-999.0,92,-99.99,,,-99.99,,2013-03-08 08:01:00,
2013-03-08 03:11:00,19.0,17.0,30.51,WNW,286,0.0,-999.0,92,-99.99,,,-99.99,,2013-03-08 08:11:00,
2013-03-08 03:22:00,19.0,17.0,30.51,WNW,286,0.0,-999.0,92,-99.99,,,-99.99,,2013-03-08 08:22:00,
2013-03-08 03:32:00,19.0,17.0,30.51,WNW,286,0.0,-999.0,92,-99.99,,,-99.99,,2013-03-08 08:32:00,
2013-03-08 03:42:00,19.0,17.0,30.51,WNW,286,0.0,-999.0,92,-99.99,,,-99.99,,2013-03-08 08:42:00,
2013-03-08 03:52:00,18.0,16.0,30.51,WNW,286,0.0,-999.0,92,-99.99,,,-99.99,,2013-03-08 08:52:00,
2013-03-08 04:03:00,18.0,16.0,30.51,WNW,286,0.0,-999.0,92,-99.99,,,-99.99,,2013-03-08 09:03:00,
2013-03-08 04:11:00,18.0,16.0,30.51,WNW,286,0.0,-999.0,92,-99.99,,,-99.99,,2013-03-08 09:11:00,
2013-03-08 04:21:00,18.0,16.0,30.51,WNW,286,0.0,-999.0,93,-99.99,,,-99.99,,2013-03-08 09:21:00,
2013-03-08 04:32:00,18.0,16.0,30.51,WNW,286,0.0,-999.0,92,-99.99,,,-99.99,,2013-03-08 09:32:00,
2013-03-08 04:42:00,18.0,16.0,30.51,WNW,286,0.0,-999.0,92,-99.99,,,-99.99,,2013-03-08 09:42:00,
2013-03-08 04:52:00,18.0,16.0,30.51,WNW,286,0.0,-999.0,93,-99.99,,,-99.99,,2013-03-08 09:52:00,
2013-03-08 05:01:00,17.0,15.0,30.51,WNW,286,0.0,-999.0,92,-99.99,,,-99.99,,2013-03-08 10:01:00,
2013-03-08 05:11:00,17.0,15.0,30.51,WNW,286,0.0,-999.0,92,-99.99,,,-99.99,,2013-03-08 10:11:00,
2013-03-08 05:21:00,17.0,15.0,30.52,WNW,286,0.0,-999.0,93,-99.99,,,-99.99,,2013-03-08 10:21:00,
2013-03-08 05:32:00,17.0,15.0,30.52,WNW,286,0.0,-999.0,93,-99.99,,,-99.99,,2013-03-08 10:32:00,
2013-03-08 05:42:00,17.0,15.0,30.52,WNW,286,0.0,-999.0,93,-99.99,,,-99.99,,2013-03-08 10:42:00,
2013-03-08 05:51:00,17.0,15.0,30.53,WNW,286,0.0,-999.0,93,-99.99,,,-99.99,,2013-03-08 10:51:00,
2013-03-08 06:01:00,17.0,15.0,30.53,WNW,286,0.0,-999.0,93,-99.99,,,-99.99,,2013-03-08 11:01:00,
2013-03-08 06:11:00,17.0,15.0,30.53,WNW,286,0.0,-999.0,93,-99.99,,,-99.99,,2013-03-08 11:11:00,
2013-03-08 06:21:00,17.0,15.0,30.54,WNW,286,0.0,-999.0,93,-99.99,,,-99.99,,2013-03-08 11:21:00,
2013-03-08 06:32:00,17.0,15.0,30.54,WNW,286,0.0,-999.0,93,-99.99,,,-99.99,,2013-03-08 11:32:00,
2013-03-08 06:42:00,17.0,15.0,30.54,WNW,286,0.0,-999.0,93,-99.99,,,-99.99,,2013-03-08 11:42:00,
2013-03-08 06:52:00,17.0,15.0,30.55,WNW,286,0.0,-999.0,92,-99.99,,,-99.99,,2013-03-08 11:52:00,
2013-03-08 07:02:00,16.0,14.0,30.55,WNW,286,0.0,-999.0,93,-99.99,,,-99.99,,2013-03-08 12:02:00,
2013-03-08 07:11:00,16.0,14.0,30.55,WNW,286,0.0,-999.0,93,-99.99,,,-99.99,,2013-03-08 12:11:00,
2013-03-08 07:22:00,16.0,14.0,30.55,WNW,286,0.0,-999.0,93,-99.99,,,-99.99,,2013-03-08 12:22:00,
2013-03-08 07:32:00,16.0,14.0,30.55,WNW,286,0.0,-999.0,93,-99.99,,,-99.99,,2013-03-08 12:32:00,
2013-03-08 07:43:00,16.0,14.0,30.55,WNW,286,0.0,-999.0,93,-99.99,,,-99.99,,2013-03-08 12:43:00,
2013-03-08 07:52:00,16.0,14.0,30.55,WNW,286,0.0,-999.0,93,-99.99,,,-99.99,,2013-03-08 12:52:00,
2013-03-08 08:02:00,17.0,15.0,30.55,WNW,286,0.0,-999.0,93,-99.99,,,-99.99,,2013-03-08 13:02:00,
2013-03-08 08:11:00,17.0,15.0,30.55,WNW,286,0.0,-999.0,93,-99.99,,,-99.99,,2013-03-08 13:11:00,
2013-03-08 08:22:00,18.0,16.0,30.55,WNW,286,0.0,-999.0,93,-99.99,,,-99.99,,2013-03-08 13:22:00,
2013-03-08 08:32:00,20.0,18.0,30.56,WNW,286,0.0,-999.0,93,-99.99,,,-99.99,,2013-03-08 13:32:00,
2013-03-08 08:42:00,20.0,18.0,30.56,WNW,286,0.0,-999.0,93,-99.99,,,-99.99,,2013-03-08 13:42:00,
2013-03-08 08:52:00,22.0,20.0,30.57,NW,311,0.0,-999.0,93,-99.99,,,-99.99,,2013-03-08 13:52:00,
2013-03-08 09:03:00,23.0,21.0,30.57,NNW,339,1.0,-999.0,91,-99.99,,,-99.99,,2013-03-08 14:03:00,
2013-03-08 09:12:00,23.0,21.0,30.57,NNW,339,1.0,-999.0,91,-99.99,,,-99.99,,2013-03-08 14:12:00,
2013-03-08 09:22:00,25.0,22.0,30.57,NNW,348,0.0,-999.0,88,-99.99,,,-99.99,,2013-03-08 14:22:00,
2013-03-08 09:32:00,26.0,22.0,30.57,SE,125,1.0,-999.0,83,-99.99,,,-99.99,,2013-03-08 14:32:00,
2013-03-08 09:42:00,26.0,22.0,30.57,SE,125,1.0,-999.0,83,-99.99,,,-99.99,,2013-03-08 14:42:00,
2013-03-08 09:52:00,28.0,22.0,30.57,SE,137,2.0,-999.0,77,-99.99,,,-99.99,,2013-03-08 14:52:00,
2013-03-08 10:03:00,29.0,21.0,30.56,SSE,165,4.0,-999.0,73,-99.99,,,-99.99,,2013-03-08 15:03:00,
2013-03-08 10:12:00,30.0,22.0,30.57,South,170,2.0,-999.0,71,-99.99,,,-99.99,,2013-03-08 15:12:00,
2013-03-08 10:22:00,30.0,22.0,30.57,South,170,2.0,-999.0,71,-99.99,,,-99.99,,2013-03-08 15:22:00,
2013-03-08 10:32:00,32.0,22.0,30.57,SSE,148,2.0,-999.0,67,-99.99,,,-99.99,,2013-03-08 15:32:00,
2013-03-08 10:42:00,32.0,22.0,30.57,SSE,148,2.0,-999.0,67,-99.99,,,-99.99,,2013-03-08 15:42:00,
2013-03-08 10:53:00,32.0,22.0,30.56,SSE,159,3.0,-999.0,66,-99.99,,,-99.99,,2013-03-08 15:53:00,
2013-03-08 11:01:00,33.0,23.0,30.57,South,184,2.0,-999.0,65,-99.99,,,-99.99,,2013-03-08 16:01:00,
2013-03-08 11:11:00,33.0,23.0,30.57,South,184,2.0,-999.0,65,-99.99,,,-99.99,,2013-03-08 16:11:00,
2013-03-08 11:22:00,33.0,22.0,30.57,SSE,165,1.0,-999.0,63,-99.99,,,-99.99,,2013-03-08 16:22:00,
2013-03-08 11:32:00,34.0,22.0,30.57,SSE,160,2.0,-999.0,61,-99.99,,,-99.99,,2013-03-08 16:32:00,
2013-03-08 11:42:00,34.0,22.0,30.57,SSE,160,2.0,-999.0,61,-99.99,,,-99.99,,2013-03-08 16:42:00,
2013-03-08 11:52:00,34.0,23.0,30.56,SSW,193,2.0,-999.0,63,-99.99,,,-99.99,,2013-03-08 16:52:00,
2013-03-08 12:03:00,36.0,25.0,30.56,WSW,242,3.0,-999.0,64,-99.99,,,-99.99,,2013-03-08 17:03:00,
2013-03-08 12:11:00,36.0,25.0,30.56,WSW,242,3.0,-999.0,64,-99.99,,,-99.99,,2013-03-08 17:11:00,
2013-03-08 12:21:00,35.0,24.0,30.56,SSE,161,3.0,-999.0,64,-99.99,,,-99.99,,2013-03-08 17:21:00,
2013-03-08 12:32:00,35.0,24.0,30.56,SSE,147,3.0,-999.0,64,-99.99,,,-99.99,,2013-03-08 17:32:00,
2013-03-08 12:42:00,35.0,24.0,30.56,SSE,147,3.0,-999.0,64,-99.99,,,-99.99,,2013-03-08 17:42:00,
2013-03-08 12:52:00,35.0,24.0,30.56,SSE,147,3.0,-999.0,64,-99.99,,,-99.99,,2013-03-08 17:52:00,
2013-03-08 13:02:00,37.0,25.0,30.55,SSW,195,3.0,-999.0,61,-99.99,,,-99.99,,2013-03-08 18:02:00,
2013-03-08 13:11:00,37.0,25.0,30.55,SSW,195,3.0,-999.0,61,-99.99,,,-99.99,,2013-03-08 18:11:00,
2013-03-08 13:22:00,37.0,25.0,30.54,SW,218,3.0,-999.0,62,-99.99,,,-99.99,,2013-03-08 18:22:00,
2013-03-08 13:32:00,38.0,25.0,30.54,West,280,3.0,-999.0,59,-99.99,,,-99.99,,2013-03-08 18:32:00,
2013-03-08 13:42:00,38.0,25.0,30.54,West,280,3.0,-999.0,59,-99.99,,,-99.99,,2013-03-08 18:42:00,
2013-03-08 13:52:00,38.0,25.0,30.54,West,280,3.0,-999.0,59,-99.99,,,-99.99,,2013-03-08 18:52:00,
2013-03-08 14:01:00,39.0,25.0,30.53,West,264,3.0,-999.0,57,-99.99,,,-99.99,,2013-03-08 19:01:00,
2013-03-08 14:11:00,39.0,25.0,30.53,West,264,3.0,-999.0,57,-99.99,,,-99.99,,2013-03-08 19:11:00,
2013-03-08 14:22:00,39.0,25.0,30.52,WSW,252,2.0,-999.0,58,-99.99,,,-99.99,,2013-03-08 19:22:00,
2013-03-08 14:32:00,39.0,24.0,30.52,WSW,242,4.0,-999.0,54,-99.99,,,-99.99,,2013-03-08 19:32:00,
2013-03-08 14:42:00,39.0,24.0,30.52,WSW,242,4.0,-999.0,54,-99.99,,,-99.99,,2013-03-08 19:42:00,
2013-03-08 14:52:00,39.0,24.0,30.51,West,261,2.0,-999.0,55,-99.99,,,-99.99,,2013-03-08 19:52:00,
2013-03-08 15:01:00,39.0,23.0,30.51,West,268,1.0,-999.0,52,-99.99,,,-99.99,,2013-03-08 20:01:00,
2013-03-08 15:11:00,39.0,23.0,30.51,West,268,1.0,-999.0,52,-99.99,,,-99.99,,2013-03-08 20:11:00,
2013-03-08 15:22:00,40.0,24.0,30.51,West,271,2.0,-999.0,52,-99.99,,,-99.99,,2013-03-08 20:22:00,
2013-03-08 15:32:00,39.0,23.0,30.51,WSW,253,1.0,-999.0,52,-99.99,,,-99.99,,2013-03-08 20:32:00,
2013-03-08 15:42:00,39.0,23.0,30.51,WSW,253,1.0,-999.0,52,-99.99,,,-99.99,,2013-03-08 20:42:00,
2013-03-08 15:52:00,40.0,24.0,30.50,West,267,3.0,-999.0,52,-99.99,,,-99.99,,2013-03-08 20:52:00,
2013-03-08 16:02:00,40.0,23.0,30.50,SSE,154,1.0,-999.0,51,-99.99,,,-99.99,,2013-03-08 21:02:00,
2013-03-08 16:11:00,40.0,23.0,30.50,SSE,154,1.0,-999.0,51,-99.99,,,-99.99,,2013-03-08 21:11:00,
2013-03-08 16:22:00,39.0,23.0,30.50,SE,144,1.0,-999.0,53,-99.99,,,-99.99,,2013-03-08 21:22:00,
2013-03-08 16:32:00,39.0,23.0,30.50,SE,140,1.0,-999.0,52,-99.99,,,-99.99,,2013-03-08 21:32:00,
2013-03-08 16:42:00,39.0,23.0,30.50,SE,140,1.0,-999.0,52,-99.99,,,-99.99,,2013-03-08 21:42:00,
2013-03-08 16:52:00,40.0,23.0,30.49,SE,136,1.0,-999.0,51,-99.99,,,-99.99,,2013-03-08 21:52:00,
2013-03-08 17:01:00,40.0,23.0,30.49,SSE,154,0.0,-999.0,51,-99.99,,,-99.99,,2013-03-08 22:01:00,
2013-03-08 17:12:00,40.0,23.0,30.49,SSE,154,0.0,-999.0,51,-99.99,,,-99.99,,2013-03-08 22:12:00,
2013-03-08 17:22:00,40.0,23.0,30.48,ESE,123,1.0,-999.0,51,-99.99,,,-99.99,,2013-03-08 22:22:00,
2013-03-08 17:32:00,40.0,24.0,30.48,SE,140,0.0,-999.0,53,-99.99,,,-99.99,,2013-03-08 22:32:00,
2013-03-08 17:42:00,40.0,24.0,30.48,SE,140,0.0,-999.0,53,-99.99,,,-99.99,,2013-03-08 22:42:00,
2013-03-08 17:52:00,39.0,24.0,30.48,SSE,148,0.0,-999.0,54,-99.99,,,-99.99,,2013-03-08 22:52:00,
2013-03-08 18:02:00,39.0,24.0,30.48,SSE,165,0.0,-999.0,54,-99.99,,,-99.99,,2013-03-08 23:02:00,
2013-03-08 18:12:00,39.0,24.0,30.48,SSE,165,0.0,-999.0,54,-99.99,,,-99.99,,2013-03-08 23:12:00,
2013-03-08 18:22:00,39.0,24.0,30.48,SSE,165,0.0,-999.0,54,-99.99,,,-99.99,,2013-03-08 23:22:00,
2013-03-08 18:32:00,39.0,24.0,30.47,SSE,164,1.0,-999.0,55,-99.99,,,-99.99,,2013-03-08 23:32:00,
2013-03-08 18:42:00,39.0,24.0,30.47,SSE,164,1.0,-999.0,55,-99.99,,,-99.99,,2013-03-08 23:42:00,
2013-03-08 18:52:00,37.0,24.0,30.46,SSE,164,0.0,-999.0,58,-99.99,,,-99.99,,2013-03-08 23:52:00,
2013-03-08 19:02:00,36.0,25.0,30.46,SSE,164,0.0,-999.0,63,-99.99,,,-99.99,,2013-03-09 00:02:00,
2013-03-08 19:12:00,36.0,25.0,30.46,SSE,164,0.0,-999.0,63,-99.99,,,-99.99,,2013-03-09 00:12:00,
2013-03-08 19:22:00,34.0,23.0,30.47,SSE,164,0.0,-999.0,64,-99.99,,,-99.99,,2013-03-09 00:22:00,
2013-03-08 19:32:00,34.0,25.0,30.47,SSE,164,0.0,-999.0,68,-99.99,,,-99.99,,2013-03-09 00:32:00,
2013-03-08 19:42:00,34.0,25.0,30.47,SSE,164,0.0,-999.0,68,-99.99,,,-99.99,,2013-03-09 00:42:00,
2013-03-08 19:52:00,33.0,24.0,30.48,SSE,164,0.0,-999.0,70,-99.99,,,-99.99,,2013-03-09 00:52:00,
2013-03-08 20:02:00,32.0,24.0,30.48,SSE,164,0.0,-999.0,71,-99.99,,,-99.99,,2013-03-09 01:02:00,
2013-03-08 20:12:00,31.0,24.0,30.47,SSE,164,0.0,-999.0,75,-99.99,,,-99.99,,2013-03-09 01:12:00,
2013-03-08 20:22:00,31.0,24.0,30.47,SSE,164,0.0,-999.0,75,-99.99,,,-99.99,,2013-03-09 01:22:00,
2013-03-08 20:32:00,32.0,25.0,30.48,SSE,164,0.0,-999.0,75,-99.99,,,-99.99,,2013-03-09 01:32:00,
2013-03-08 20:42:00,32.0,25.0,30.48,SSE,164,0.0,-999.0,75,-99.99,,,-99.99,,2013-03-09 01:42:00,
2013-03-08 20:51:00,31.0,24.0,30.49,SSE,164,0.0,-999.0,76,-99.99,,,-99.99,,2013-03-09 01:51:00,
2013-03-08 21:01:00,30.0,24.0,30.49,SSE,164,0.0,-999.0,78,-99.99,,,-99.99,,2013-03-09 02:01:00,
2013-03-08 21:11:00,30.0,24.0,30.49,SSE,164,0.0,-999.0,78,-99.99,,,-99.99,,2013-03-09 02:11:00,
2013-03-08 21:21:00,30.0,24.0,30.49,SSE,164,0.0,-999.0,78,-99.99,,,-99.99,,2013-03-09 02:21:00,
2013-03-08 21:31:00,29.0,23.0,30.49,SSE,164,0.0,-999.0,79,-99.99,,,-99.99,,2013-03-09 02:31:00,
2013-03-08 21:41:00,29.0,24.0,30.48,SSE,164,0.0,-999.0,81,-99.99,,,-99.99,,2013-03-09 02:41:00,
2013-03-08 21:51:00,29.0,24.0,30.48,SSE,164,0.0,-999.0,81,-99.99,,,-99.99,,2013-03-09 02:51:00,
2013-03-08 22:01:00,28.0,23.0,30.48,SSE,164,0.0,-999.0,82,-99.99,,,-99.99,,2013-03-09 03:01:00,
2013-03-08 22:11:00,28.0,23.0,30.48,SSE,164,0.0,-999.0,82,-99.99,,,-99.99,,2013-03-09 03:11:00,
2013-03-08 22:21:00,28.0,24.0,30.48,SSE,164,0.0,-999.0,83,-99.99,,,-99.99,,2013-03-09 03:21:00,
2013-03-08 22:31:00,28.0,24.0,30.47,SSE,164,0.0,-999.0,84,-99.99,,,-99.99,,2013-03-09 03:31:00,
2013-03-08 22:41:00,28.0,24.0,30.47,SSE,164,0.0,-999.0,84,-99.99,,,-99.99,,2013-03-09 03:41:00,
2013-03-08 22:52:00,27.0,23.0,30.47,SSE,164,0.0,-999.0,85,-99.99,,,-99.99,,2013-03-09 03:52:00,
2013-03-08 23:01:00,27.0,23.0,30.47,SSE,164,0.0,-999.0,85,-99.99,,,-99.99,,2013-03-09 04:01:00,
2013-03-08 23:11:00,27.0,23.0,30.47,SSE,164,0.0,-999.0,85,-99.99,,,-99.99,,2013-03-09 04:11:00,
2013-03-08 23:22:00,27.0,23.0,30.47,SSE,164,0.0,-999.0,86,-99.99,,,-99.99,,2013-03-09 04:22:00,
2013-03-08 23:32:00,26.0,22.0,30.46,SSE,164,0.0,-999.0,86,-99.99,,,-99.99,,2013-03-09 04:32:00,
2013-03-08 23:42:00,26.0,22.0,30.46,SSE,164,0.0,-999.0,86,-99.99,,,-99.99,,2013-03-09 04:42:00,
2013-03-08 23:52:00,26.0,23.0,30.45,SSE,164,0.0,-999.0,87,-99.99,,,-99.99,,2013-03-09 04:52:00,